Date String (YYYY-MM-DD hh:mm:ss) UTC,Instrument flags,absolute air pressure of the measurement (hPa),sample flow rate (lpm),inlet stack bypass flow (lpm),air temperature of the measurement (°C),ambient temperature measured by the external sensor (°C),aerosol sample conditioner tube jacket temperature (°C),OPC LED temperature (°C),internal box temperature (°C),relative humidity of the measurement (%),span deviation,mass concentration of particles derived from Lorenz-Mie calculation of OPC scattering (μg/m³),mass concentration of particles derived from Lorenz-Mie calculation of OPC scattering (μg/m³),mass concentration of particles derived from Lorenz-Mie calculation of OPC scattering (μg/m³)
DateTimeUTC,F1_M11,P_M11,Q1_M11,Q2_M11,T1_M11,T2_M11,T3_M11,T4_M11,T5_M11,U1_M11,ZSPAN_M11,X2_M11,X0_M11,X1_M11
2024-06-13 08:00:00,SystemResetWarning,0829.7,5.00,000.00,029.9,029.3,000.0,038.1,031.7,016.8,0000.0,0004.55,0008.69,0003.81
2024-06-13 08:01:00,SystemResetWarning,0829.7,5.01,000.00,030.0,029.4,000.0,038.1,031.7,016.8,0000.0,0004.54,0008.61,0003.81
2024-06-13 08:02:00,SystemResetWarning,0829.7,5.00,000.00,030.0,029.4,000.0,038.2,031.8,016.8,0000.0,0004.55,0009.55,0003.81
2024-06-13 08:03:00,SystemResetWarning,0829.7,5.00,000.00,030.1,029.5,000.0,038.2,031.8,016.7,0000.0,0004.49,0009.65,0003.80
2024-06-13 08:04:00,SystemResetWarning,0829.7,5.00,000.00,030.1,029.6,000.0,038.2,031.9,016.7,0000.0,0004.49,0010.01,0003.81
2024-06-13 08:05:00,SystemResetWarning,0829.7,4.99,000.00,030.2,029.6,000.0,038.3,031.9,016.6,0000.0,0004.48,0009.95,0003.81
2024-06-13 08:06:00,SystemResetWarning,0829.7,5.00,000.00,030.2,029.6,000.0,038.3,031.9,016.7,0000.0,0004.49,0010.01,0003.81
2024-06-13 08:07:00,SystemResetWarning,0829.7,5.02,000.00,030.2,029.7,000.0,038.3,032.0,016.6,0000.0,0004.50,0010.26,0003.80
2024-06-13 08:08:00,SystemResetWarning,0829.7,5.00,000.00,030.3,029.7,000.0,038.3,032.0,016.6,0000.0,0004.48,0010.81,0003.81
2024-06-13 08:09:00,SystemResetWarning,0829.7,4.98,000.00,030.3,029.8,000.0,038.4,032.0,016.5,0000.0,0004.48,0011.36,0003.81
2024-06-13 08:10:00,SystemResetWarning,0829.7,5.01,000.00,030.3,029.8,000.0,038.4,032.1,016.6,0000.0,0004.44,0011.58,0003.82
2024-06-13 08:11:00,SystemResetWarning,0829.7,5.01,000.00,030.4,029.8,000.0,038.4,032.1,016.6,0000.0,0004.45,0012.43,0003.82
2024-06-13 08:12:00,SystemResetWarning,0829.7,4.99,000.00,030.4,029.9,000.0,038.5,032.1,016.6,0000.0,0004.45,0012.43,0003.83
2024-06-13 08:13:00,SystemResetWarning,0829.7,4.99,000.00,030.4,029.9,000.0,038.5,032.1,016.5,0000.0,0004.44,0011.49,0003.83
2024-06-13 08:14:00,SystemResetWarning,0829.7,5.00,000.00,030.4,029.5,000.0,038.6,031.9,016.6,0000.0,0004.49,0011.23,0003.84
2024-06-13 08:15:00,SystemResetWarning,0829.6,5.00,000.00,030.1,027.2,000.0,038.6,030.8,016.9,0000.0,0004.53,0010.94,0003.87
2024-06-13 08:16:00,SystemResetWarning,0829.5,5.02,000.00,029.7,026.5,000.0,038.6,030.4,017.2,0000.0,0004.56,0011.00,0003.89
2024-06-13 08:17:00,SystemResetWarning,0829.6,5.00,000.00,029.6,026.8,000.0,038.5,030.5,017.4,0000.0,0004.62,0011.19,0003.91
2024-06-13 08:18:00,SystemResetWarning,0829.6,5.00,000.00,029.6,027.2,000.0,038.3,030.8,017.3,0000.0,0004.65,0011.15,0003.92
2024-06-13 08:19:00,SystemResetWarning,0829.6,5.00,000.00,029.6,027.6,000.0,038.3,031.0,017.2,0000.0,0004.67,0010.85,0003.95
2024-06-13 08:20:00,SystemResetWarning,0829.6,5.00,000.00,029.6,028.0,000.0,038.2,031.1,017.3,0000.0,0004.71,0011.34,0003.97
2024-06-13 08:21:00,SystemResetWarning,0829.6,5.00,000.00,029.6,028.2,000.0,038.2,031.2,017.2,0000.0,0004.79,0011.89,0003.98
2024-06-13 08:22:00,SystemResetWarning,0829.6,4.99,000.00,029.7,028.5,000.0,038.1,031.3,017.2,0000.0,0004.86,0011.12,0004.00
2024-06-13 08:23:00,SystemResetWarning,0829.6,5.00,000.00,029.7,028.7,000.0,038.1,031.4,017.2,0000.0,0004.84,0011.04,0004.02
2024-06-13 08:24:00,SystemResetWarning,0829.5,5.00,000.00,029.8,028.8,000.0,038.1,031.5,017.2,0000.0,0004.86,0011.22,0004.03
2024-06-13 08:25:00,SystemResetWarning,0829.5,5.00,000.00,029.8,029.0,000.0,038.1,031.5,017.0,0000.0,0004.84,0012.25,0004.04
2024-06-13 08:26:00,SystemResetWarning,0829.5,5.01,000.00,029.8,029.1,000.0,038.1,031.6,016.9,0000.0,0004.79,0012.11,0004.04
2024-06-13 08:27:00,SystemResetWarning,0829.5,5.00,000.00,029.9,029.2,000.0,038.1,031.6,016.9,0000.0,0004.75,0012.43,0004.03
2024-06-13 08:28:00,SystemResetWarning,0829.5,5.00,000.00,029.9,029.3,000.0,038.2,031.7,016.8,0000.0,0004.73,0012.37,0004.03
2024-06-13 08:29:00,SystemResetWarning,0829.4,4.99,000.00,030.0,029.3,000.0,038.2,031.7,016.7,0000.0,0004.76,0012.39,0004.03
2024-06-13 08:30:00,SystemResetWarning,0829.4,4.99,000.00,030.0,029.4,000.0,038.2,031.7,016.7,0000.0,0004.80,0012.17,0004.04
2024-06-13 08:31:00,SystemResetWarning,0829.4,5.00,000.00,030.1,029.5,000.0,038.2,031.8,016.7,0000.0,0004.83,0011.22,0004.04
2024-06-13 08:32:00,SystemResetWarning,0829.4,5.00,000.00,030.1,029.5,000.0,038.2,031.8,016.7,0000.0,0004.82,0010.79,0004.05
2024-06-13 08:33:00,SystemResetWarning,0829.4,5.00,000.00,030.1,029.6,000.0,038.3,031.9,016.7,0000.0,0004.79,0010.67,0004.05
2024-06-13 08:34:00,SystemResetWarning,0829.4,5.01,000.00,030.2,029.6,000.0,038.3,031.9,016.6,0000.0,0004.80,0010.68,0004.04
2024-06-13 08:35:00,SystemResetWarning,0829.4,5.00,000.00,030.2,029.7,000.0,038.3,032.0,016.5,0000.0,0004.80,0010.75,0004.05
2024-06-13 08:36:00,SystemResetWarning,0829.3,5.00,000.00,030.3,029.7,000.0,038.3,032.0,016.5,0000.0,0004.80,0009.88,0004.04
2024-06-13 08:37:00,SystemResetWarning,0829.4,4.99,000.00,030.3,029.8,000.0,038.4,032.0,016.5,0000.0,0004.84,0010.18,0004.03
2024-06-13 08:38:00,SystemResetWarning,0829.3,4.99,000.00,030.3,029.8,000.0,038.4,032.0,016.5,0000.0,0004.88,0011.10,0004.04
2024-06-13 08:39:00,SystemResetWarning,0829.4,4.99,000.00,030.4,029.8,000.0,038.4,032.1,016.5,0000.0,0004.88,0011.64,0004.04
2024-06-13 08:40:00,SystemResetWarning,0829.3,4.99,000.00,030.4,029.9,000.0,038.5,032.1,016.5,0000.0,0004.82,0011.49,0004.03
2024-06-13 08:41:00,SystemResetWarning,0829.3,5.00,000.00,030.4,029.9,000.0,038.5,032.1,016.4,0000.0,0004.79,0011.45,0004.03
2024-06-13 08:42:00,SystemResetWarning,0829.3,5.00,000.00,030.5,029.9,000.0,038.5,032.2,016.4,0000.0,0004.73,0011.29,0004.02
2024-06-13 08:43:00,SystemResetWarning,0829.3,5.00,000.00,030.5,029.9,000.0,038.6,032.2,016.4,0000.0,0004.74,0011.13,0004.02
2024-06-13 08:44:00,SystemResetWarning,0829.4,5.00,000.00,030.5,030.0,000.0,038.6,032.2,016.4,0000.0,0004.73,0011.92,0004.02
2024-06-13 08:45:00,SystemResetWarning,0829.3,5.01,000.00,030.5,030.0,000.0,038.6,032.2,016.4,0000.0,0004.73,0012.09,0004.02
2024-06-13 08:46:00,SystemResetWarning,0829.3,4.98,000.00,030.4,028.3,000.0,038.7,031.4,016.5,0000.0,0004.72,0011.91,0004.02
2024-06-13 08:47:00,SystemResetWarning,0829.3,5.02,000.00,030.0,026.6,000.0,038.7,030.6,016.9,0000.0,0004.71,0011.87,0004.02
2024-06-13 08:48:00,SystemResetWarning,0829.4,5.00,000.00,029.7,026.7,000.0,038.6,030.5,017.1,0000.0,0004.69,0011.63,0004.03
2024-06-13 08:49:00,SystemResetWarning,0829.4,4.99,000.00,029.7,027.1,000.0,038.5,030.7,017.2,0000.0,0004.70,0010.44,0004.03
2024-06-13 08:50:00,SystemResetWarning,0829.4,5.01,000.00,029.7,027.5,000.0,038.4,030.9,017.2,0000.0,0004.76,0009.92,0004.03
2024-06-13 08:51:00,SystemResetWarning,0829.3,5.01,000.00,029.7,027.8,000.0,038.3,031.1,017.2,0000.0,0004.79,0010.66,0004.04
2024-06-13 08:52:00,SystemResetWarning,0829.4,5.01,000.00,029.7,028.2,000.0,038.3,031.2,017.1,0000.0,0004.80,0010.61,0004.04
2024-06-13 08:53:00,SystemResetWarning,0829.3,4.99,000.00,029.7,028.4,000.0,038.2,031.3,017.1,0000.0,0004.81,0010.67,0004.03
2024-06-13 08:54:00,SystemResetWarning,0829.3,5.00,000.00,029.8,028.6,000.0,038.2,031.4,017.0,0000.0,0004.79,0010.92,0004.02
2024-06-13 08:55:00,SystemResetWarning,0829.3,4.99,000.00,029.8,028.8,000.0,038.2,031.5,017.0,0000.0,0004.77,0010.50,0004.01
2024-06-13 08:56:00,SystemResetWarning,0829.3,5.01,000.00,029.9,028.9,000.0,038.2,031.5,017.0,0000.0,0004.76,0010.53,0004.03
2024-06-13 08:57:00,SystemResetWarning,0829.3,5.01,000.00,029.9,029.1,000.0,038.2,031.6,017.0,0000.0,0004.75,0011.80,0004.03
2024-06-13 08:58:00,SystemResetWarning,0829.3,5.00,000.00,029.9,029.2,000.0,038.2,031.6,016.9,0000.0,0004.75,0011.64,0004.03
2024-06-13 08:59:00,SystemResetWarning,0829.4,4.99,000.00,030.0,029.3,000.0,038.2,031.7,016.8,0000.0,0004.72,0011.63,0004.02
